World > North America > United States > Georgia

Ringgold, Georgia Regional Weather

Lat: 34.92N, Lon: 85.11W
Wx Zone: GAZ003Web Search

Helpful Tip: Type the letters wx in the search engine next time you need to find us.

Feedback
Ringgold Weather Map
UTC Time: 10/1/2020, 15:48
Your Time:

Ringgold, GA Regional Weather

Expires:202010011500;;645857
ASUS42 KFFC 011410
RWRGA 
WEATHER ROUNDUP FOR GEORGIA
NATIONAL WEATHER SERVICE PEACHTREE CITY GA
1000 AM EDT THU OCT 01 2020

NOTE: "FAIR" INDICATES FEW OR NO CLOUDS BELOW 12,000 FEET WITH NO
SIGNIFICANT WEATHER AND/OR OBSTRUCTIONS TO VISIBILITY. 

* = USE WITH CAUTION. THE STATIONS MARKED WITH AN ASTERISK MAY NOT
REPORT WEATHER SUCH AS PRECIPITATION, FOG, OR THUNDER AND ARE NOT 
QUALITY CONTROLLED BY NWS.

THE REMARK "TC" DENOTES TEMPERATURE READING IN DEGREES CELSIUS.


GAZ001>058-011500-
NORTH GEORGIA
  
CITY           SKY/WX    TMP DP  RH WIND       PRES   REMARKS
ATLANTA        SUNNY     66  54  65 SW8       30.06R                  
ATHENS         SUNNY     66  55  67 W3        30.04S                  
CHAMBLEE       SUNNY     62  56  80 CALM      30.06R                  
PEACHTREE CITY SUNNY     63  56  78 VRB3      30.08R                  
ROME           SUNNY     32  32 100 CALM      30.05S                  
WEST ATLANTA   SUNNY     61  53  75 SW5       30.06R                  
GAINESVILLE    SUNNY     64  53  67 W8        30.07R                  
CARTERSVILLE   SUNNY     61  54  77 CALM      30.07R                  

  
CITY           SKY/WX    TMP DP  RH WIND       PRES   REMARKS
DALTON*        SUNNY     63  54  72 CALM      30.07R                  
LAWRENCEVILLE* SUNNY     64  56  75 SW7       30.06R                  
MARIETTA       MOSUNNY   64  54  69 W7        30.06R                  
KENNESAW*      SUNNY     64  53  67 W8        30.07R                  
CANTON*        SUNNY     61  55  82 CALM      30.07S                  
BLAIRSVILLE*   MOSUNNY   51  50  99 CALM      30.08S                  
$$


SKY/WX - Weather  TMP - Temperature  DP - Dew Point  RH - Relative Humidity
WIND - Wind Direction/Speed PRES - Barometric Pressure VSB - Visibility
WCI - Wind Chill Index E13G22 Wind - East Wind 13 mph/Gusts of 22 mph